[[{"header":{"parameterUnit":"m.s-1","parameterCategory":1,"la1":30.2991,"la2":30.254,"lo1":-89.0895,"lo2":-89.0444,"dy":0.0017,"dx":0.0017,"nx":28,"ny":28,"refTime":"2024-08-26T03:00:00:Z","depth":0,"parameterNumber":2,"parameterNumberName":"U-component_of_WINDS"},"data":[0,0,0,0,0,0,0,0,0,0,0,0,0,0,0,0,0,0,0,0,0,0,0,0,0,0,0,0,0,0,0,0,0,0,0,0,0,0,0,0,0,0,0,0,0,0,0,0,0,0,0,0,0,0,0,0,0,0,-3.6309,-3.6308,0,-3.6215,-3.6214,-3.6213,-3.6098,-3.6096,-3.6094,-3.6092,-3.5993,-3.5992,-3.5991,0,0,0,0,0,0,0,0,0,0,0,0,0,-3.639,-3.6389,-3.6309,-3.6308,-3.6307,-3.6215,-3.6214,-3.6212,-3.6098,-3.6096,-3.6094,-3.6091,-3.5994,-3.5992,-3.5991,0,0,0,0,0,0,0,0,0,0,0,0,0,-3.6331,-3.6388,-3.6309,-3.6239,-3.6231,-3.6215,-3.6214,-3.6212,-3.6098,-3.6096,-3.6093,-3.609,-3.5994,-3.5993,-3.5991,-3.6036,0,0,-3.5987,-3.5986,0,0,0,0,0,0,0,0,-3.6334,-3.6328,-3.625,-3.6243,-3.6235,-3.6165,-3.6206,-3.6153,-3.6099,-3.6149,-3.6092,-3.6089,-3.6052,-3.6046,-3.6034,-3.6031,-3.6027,-3.5987,-3.5986,-3.5985,-3.5985,0,0,0,0,0,0,0,-3.6339,-3.6331,-3.6272,-3.6249,-3.624,-3.6212,-3.62,-3.6195,-3.6117,-3.6144,-3.6136,-3.6126,-3.6048,-3.6036,-3.6031,-3.6026,-3.5987,-3.5985,-3.5984,-3.5984,-3.6057,-3.606,0,0,0,0,0,0,-3.6353,-3.6336,-3.6275,-3.6269,-3.6279,-3.6212,-3.62,-3.619,-3.6117,-3.6103,-3.6129,-3.6121,-3.604,-3.6033,-3.6027,-3.6075,-3.5985,-3.5984,-3.5983,-3.6054,-3.6058,-3.6061,0,0,0,0,0,0,-3.6356,-3.6349,-3.6278,-3.63,-3.6289,-3.6214,-3.6204,-3.619,-3.6178,-3.6105,-3.609,-3.6131,-3.6037,-3.6029,-3.6035,-3.607,-3.5983,-3.5982,-3.6051,-3.6055,-3.6059,-3.6172,0,0,0,0,0,0,-3.6358,-3.6351,-3.6367,-3.6301,-3.6288,-3.6288,-3.6206,-3.619,-3.6176,-3.6165,-3.6103,-3.609,-3.6035,-3.6038,-3.6034,-3.6067,-3.5981,-3.6047,-3.6053,-3.6058,-3.6165,-3.618,-3.6192,0,0,0,0,0,-3.6362,-3.6401,-3.6368,-3.6361,-3.6307,-3.6291,-3.6283,-3.6219,-3.6179,-3.6195,-3.6149,-3.6092,-3.6068,-3.604,-3.6034,-3.6067,-3.6045,-3.6051,-3.6057,-3.6159,-3.6177,-3.6192,0,0,0,0,0,0,-3.6471,-3.6391,-3.6353,-3.6373,-3.634,-3.6271,-3.6289,-3.624,-3.6217,-3.6208,-3.6129,-3.6116,-3.6132,-3.61,-3.607,-3.6108,-3.6048,-3.6054,-3.6127,-3.6144,-3.6157,-3.6164,-3.5979,0,0,0,0,0,-3.6498,-3.6492,-3.6422,-3.6446,-3.6432,-3.6364,-3.6354,-3.6309,-3.627,-3.6255,-3.6209,-3.6174,-3.6158,-3.615,-3.6131,-3.6161,-3.6146,-3.6181,-3.6195,-3.6206,-3.6211,-3.6226,-3.6241,-3.6081,-3.6081,-3.6081,0,0,-3.6552,-3.6508,-3.6508,-3.6467,-3.6436,-3.6432,-3.6352,-3.635,-3.6346,-3.6255,-3.6258,-3.6224,-3.6179,-3.6198,-3.6203,-3.6172,-3.6253,-3.6215,-3.6224,-3.6223,-3.6234,-3.6249,-3.6263,-3.6086,-3.6085,-3.6084,0,0,-3.6648,-3.6615,-3.6631,-3.6603,-3.6557,-3.6512,-3.6517,-3.6457,-3.6431,-3.6433,-3.6365,-3.6359,-3.6334,-3.6305,-3.6288,-3.6378,-3.6326,-3.6375,-3.6445,-3.6461,-3.6473,-3.6484,-3.6516,-3.6528,-3.6381,-3.6381,-3.6381,0,-3.6721,-3.6712,-3.6646,-3.6649,-3.6633,-3.6553,-3.6569,-3.6544,-3.6495,-3.6486,-3.6452,-3.6421,-3.6385,-3.6396,-3.6419,-3.6407,-3.641,-3.638,-3.6477,-3.6487,-3.6496,-3.6526,-3.6538,-3.6387,-3.6386,-3.6386,-3.6385,0,-3.6803,-3.6799,-3.6818,-3.6774,-3.6761,-3.6771,-3.6707,-3.6701,-3.6658,-3.6618,-3.6622,-3.6577,-3.6549,-3.6549,-3.6506,-3.6555,-3.6537,-3.6492,-3.6429,-3.6518,-3.6545,-3.6556,-3.6396,-3.6394,-3.6392,-3.639,0,0,-3.6962,-3.6885,-3.6893,-3.6873,-3.6819,-3.6813,-3.6821,-3.6795,-3.6792,-3.6762,-3.6766,-3.6749,-3.6707,-3.6688,-3.6641,-3.6655,-3.673,-3.6607,-3.6605,-3.6631,-3.6782,-3.6816,-3.683,-3.6696,-3.6698,-3.6699,-3.6785,0,-3.7047,-3.7055,-3.6998,-3.7021,-3.7017,-3.6942,-3.6949,-3.6917,-3.688,-3.6871,-3.683,-3.6819,-3.6764,-3.6752,-3.6763,-3.6719,-3.6759,-3.6712,-3.6698,-3.6699,-3.671,-3.6844,-3.6879,-3.6962,-3.6795,-3.6797,-3.6798,0,-3.7147,-3.7124,-3.7148,-3.7095,-3.7091,-3.7098,-3.7071,-3.7063,-3.7026,-3.6998,-3.6979,-3.6927,-3.693,-3.6875,-3.6879,-3.6848,-3.684,-3.6818,-3.682,-3.6814,-3.6752,-3.6841,-3.6987,-3.6999,-3.6814,-3.6813,-3.6812,0,-3.726,-3.7236,-3.7247,-3.7232,-3.7171,-3.7178,-3.7152,-3.7113,-3.7102,-3.7079,-3.7071,-3.7048,-3.7035,-3.7019,-3.6963,-3.6927,-3.6974,-3.6913,-3.6951,-3.6953,-3.6962,-3.6962,-3.7107,-3.696,-3.696,-3.696,-3.6959,0,-3.736,-3.7377,-3.7297,-3.7304,-3.7321,-3.7256,-3.7276,-3.7243,-3.7209,-3.7209,-3.7144,-3.7144,-3.707,-3.7063,-3.7019,-3.703,-3.7025,-3.7003,-3.6991,-3.7008,-3.7011,-3.6999,-3.6992,-3.6963,-3.6962,-3.6961,-3.6961,0,-3.7487,-3.7434,-3.7442,-3.7385,-3.7371,-3.7387,-3.7337,-3.7341,-3.7302,-3.7303,-3.7299,-3.7237,-3.7226,-3.7169,-3.7143,-3.7114,-3.714,-3.7117,-3.7153,-3.7144,-3.7185,-3.7182,-3.7327,-3.7343,-3.7188,-3.7189,-3.719,0,-3.7554,-3.7565,-3.7511,-3.7506,-3.7485,-3.7478,-3.7467,-3.7405,-3.7396,-3.7357,-3.7367,-3.735,-3.7334,-3.7319,-3.7272,-3.7253,-3.7228,-3.728,-3.7224,-3.7242,-3.7228,-3.7227,-3.7228,-3.7291,-3.7293,-3.7295,-3.7296,0,-3.7677,-3.7652,-3.7639,-3.7618,-3.7608,-3.7588,-3.7564,-3.7564,-3.7495,-3.7489,-3.7478,-3.7465,-3.7441,-3.7426,-3.74,-3.7373,-3.7324,-3.7315,-3.7323,-3.7339,-3.736,-3.7349,-3.7184,-3.7311,-3.731,-3.7309,-3.7308,-3.7307,-3.7775,-3.7783,-3.7747,-3.7735,-3.7712,-3.7692,-3.7694,-3.7656,-3.7645,-3.7621,-3.7586,-3.758,-3.7544,-3.7504,-3.7483,-3.7477,-3.7448,-3.7459,-3.7462,-3.7465,-3.7474,-3.7363,-3.7472,-3.7471,-3.7471,-3.7471,-3.747,0,-3.7895,-3.7869,-3.7859,-3.783,-3.7821,-3.7778,-3.775,-3.7746,-3.7741,-3.7714,-3.77,-3.7688,-3.7674,-3.7627,-3.7608,-3.7613,-3.759,-3.761,-3.7608,-3.7603,-3.7501,-3.7496,-3.7629,-3.7629,-3.7629,-3.7629,-3.7629,-3.7629,-3.7956,-3.7967,-3.7938,-3.7937,-3.7911,-3.7905,-3.7893,-3.7875,-3.7852,-3.7842,-3.7831,-3.7801,-3.7766,-3.7745,-3.773,-3.7717,-3.7713,-3.774,-3.772,-3.7625,-3.761,-3.7595,-3.759,-3.774,-3.774,-3.7821,-3.7822,-3.7823]},{"header":{"parameterUnit":"m.s-1","parameterCategory":1,"la1":30.2991,"la2":30.254,"lo1":-89.0895,"lo2":-89.0444,"dy":0.0017,"dx":0.0017,"nx":28,"ny":28,"refTime":"2024-08-26T03:00:00:Z","depth":0,"parameterNumber":3,"parameterNumberName":"V-component_of_WINDS"},"data":[0,0,0,0,0,0,0,0,0,0,0,0,0,0,0,0,0,0,0,0,0,0,0,0,0,0,0,0,0,0,0,0,0,0,0,0,0,0,0,0,0,0,0,0,0,0,0,0,0,0,0,0,0,0,0,0,0,0,3.2144,3.2145,0,3.2221,3.2222,3.2223,3.2293,3.2294,3.2295,3.2296,3.2369,3.237,3.2371,0,0,0,0,0,0,0,0,0,0,0,0,0,3.2053,3.2054,3.2144,3.2145,3.2146,3.2221,3.2222,3.2223,3.2293,3.2294,3.2295,3.2297,3.2368,3.237,3.2371,0,0,0,0,0,0,0,0,0,0,0,0,0,3.2107,3.2055,3.2144,3.219,3.2195,3.222,3.2222,3.2223,3.2293,3.2294,3.2296,3.2297,3.2368,3.237,3.2371,3.2355,0,0,3.2376,3.2377,0,0,0,0,0,0,0,0,3.2104,3.2111,3.2182,3.2187,3.2193,3.2249,3.2217,3.2267,3.2293,3.2256,3.2296,3.2298,3.2327,3.2333,3.2344,3.2358,3.2362,3.2377,3.2378,3.2378,3.2379,0,0,0,0,0,0,0,3.21,3.2108,3.2174,3.2183,3.2189,3.2206,3.2215,3.2226,3.2283,3.2259,3.2264,3.2273,3.2331,3.2342,3.2346,3.2363,3.2377,3.2378,3.2379,3.238,3.2368,3.2367,0,0,0,0,0,0,3.209,3.2104,3.2172,3.2176,3.2151,3.2206,3.2216,3.2229,3.2283,3.2293,3.2272,3.2276,3.2339,3.2344,3.2349,3.2334,3.2378,3.238,3.2381,3.2369,3.2368,3.2366,0,0,0,0,0,0,3.2088,3.2096,3.2169,3.2142,3.2152,3.2206,3.222,3.223,3.2242,3.2293,3.2303,3.2273,3.234,3.2347,3.2354,3.2337,3.2381,3.2382,3.2371,3.2369,3.2367,3.2303,0,0,0,0,0,0,3.2085,3.2094,3.209,3.2141,3.2154,3.2173,3.2219,3.2231,3.2245,3.2252,3.2297,3.2306,3.2341,3.2351,3.2355,3.234,3.2383,3.2373,3.237,3.2368,3.2306,3.2299,3.2292,0,0,0,0,0,3.2082,3.2067,3.2089,3.2097,3.2149,3.2172,3.2179,3.2222,3.2244,3.2239,3.2272,3.2304,3.2339,3.2351,3.2356,3.2342,3.2374,3.2371,3.2368,3.231,3.23,3.2292,0,0,0,0,0,0,3.2009,3.2074,3.21,3.2102,3.2131,3.2184,3.2179,3.221,3.2232,3.2237,3.2288,3.2298,3.2299,3.2321,3.2334,3.2329,3.2361,3.2359,3.2314,3.2306,3.2299,3.2293,3.2385,0,0,0,0,0,3.1994,3.2009,3.2064,3.2061,3.2075,3.2124,3.2136,3.2167,3.2198,3.221,3.2244,3.2271,3.2289,3.2299,3.2317,3.2311,3.2321,3.2303,3.2296,3.229,3.2287,3.2285,3.2278,3.2357,3.2357,3.2357,0,0,3.1962,3.1999,3.2005,3.2047,3.2074,3.2087,3.2134,3.2145,3.2155,3.2211,3.2221,3.2246,3.228,3.2281,3.2282,3.2299,3.2268,3.2286,3.2281,3.2282,3.2282,3.2274,3.2267,3.2355,3.2355,3.2356,0,0,3.191,3.194,3.1941,3.1967,3.2007,3.2041,3.2041,3.2089,3.2109,3.212,3.2163,3.2174,3.2203,3.2226,3.2241,3.2199,3.223,3.2204,3.2166,3.2164,3.2157,3.2152,3.2137,3.2131,3.2201,3.2201,3.2201,0,3.1864,3.1887,3.1936,3.1946,3.1963,3.2017,3.2018,3.204,3.2083,3.2093,3.2112,3.215,3.2177,3.2183,3.2173,3.2184,3.2185,3.2198,3.2155,3.215,3.2146,3.2131,3.2126,3.2198,3.2198,3.2198,3.2199,0,3.1828,3.1844,3.1839,3.1882,3.1899,3.1903,3.1952,3.1963,3.1993,3.2024,3.2033,3.2068,3.2095,3.2099,3.2127,3.2109,3.2119,3.2146,3.2178,3.2134,3.2121,3.2116,3.2193,3.2194,3.2195,3.2196,0,0,3.1731,3.1804,3.1801,3.1822,3.1871,3.1883,3.189,3.1918,3.1926,3.1954,3.1961,3.1985,3.201,3.2028,3.2059,3.2057,3.2022,3.2084,3.2086,3.2071,3.2004,3.1983,3.1976,3.2043,3.2042,3.2041,3.2001,0,3.1687,3.1705,3.175,3.1753,3.1768,3.1821,3.1827,3.1856,3.1886,3.1901,3.1933,3.1949,3.1982,3.1993,3.1993,3.2026,3.2009,3.2029,3.2048,3.2048,3.2037,3.1969,3.1947,3.1907,3.1996,3.1995,3.1995,0,3.1637,3.1665,3.167,3.172,3.1728,3.1732,3.1763,3.1777,3.1812,3.1833,3.1854,3.189,3.1898,3.193,3.1942,3.1955,3.1965,3.1982,3.1982,3.1984,3.2018,3.1969,3.1895,3.1889,3.1988,3.1988,3.1989,0,3.1566,3.1604,3.1612,3.1628,3.1686,3.1689,3.1712,3.1749,3.1764,3.179,3.1799,3.1825,3.1839,3.1857,3.1898,3.1917,3.1906,3.194,3.1922,3.1921,3.1917,3.1916,3.1842,3.1924,3.1924,3.1925,3.1925,0,3.1511,3.1512,3.1581,3.1586,3.1588,3.164,3.164,3.1669,3.1702,3.1712,3.1759,3.1767,3.1821,3.1835,3.1868,3.1873,3.1878,3.1895,3.1903,3.1891,3.1888,3.1897,3.1901,3.1923,3.1923,3.1924,3.1924,0,3.143,3.1477,3.149,3.1545,3.1559,3.1558,3.1604,3.161,3.1644,3.1656,3.1662,3.1713,3.1732,3.1776,3.1805,3.1827,3.1824,3.184,3.1813,3.1818,3.1797,3.1798,3.1726,3.1719,3.1805,3.1805,3.1804,0,3.1392,3.1395,3.1451,3.1462,3.1485,3.1503,3.1519,3.157,3.1584,3.1625,3.1625,3.1649,3.167,3.1698,3.1737,3.176,3.1776,3.1749,3.178,3.1767,3.1775,3.1774,3.1774,3.1742,3.1741,3.174,3.1739,0,3.1319,3.1343,3.1365,3.1395,3.1414,3.1439,3.1467,3.1474,3.1531,3.1544,3.1566,3.1583,3.1615,3.1637,3.1667,3.169,3.1723,3.173,3.1727,3.1713,3.1697,3.1705,3.1793,3.1731,3.1731,3.1732,3.1732,3.1733,3.1259,3.1263,3.1304,3.1327,3.1355,3.138,3.1389,3.1424,3.1444,3.1475,3.1504,3.1523,3.1558,3.1601,3.1622,3.1636,3.1653,3.1649,3.1648,3.1646,3.164,3.1696,3.1642,3.1642,3.1642,3.1643,3.1643,0,3.1188,3.1217,3.1238,3.1277,3.1295,3.1329,3.1362,3.1374,3.1391,3.1422,3.1443,3.1467,3.1489,3.153,3.1556,3.1559,3.1575,3.1564,3.1564,3.1568,3.1624,3.1624,3.1551,3.1551,3.1551,3.1551,3.1551,3.1551,3.1153,3.1163,3.1191,3.1215,3.1244,3.1265,3.1281,3.1304,3.1329,3.1356,3.1375,3.1403,3.1437,3.1466,3.1487,3.1499,3.1505,3.1489,3.1505,3.1556,3.1564,3.1573,3.1573,3.149,3.149,3.1449,3.1448,3.1448]}]]